Date String (YYYY-MM-DD hh:mm:ss) UTC,Instrument flags,Ambient pressure (hPa),Sample flow (lpm),Bypass flow (lpm),Sample temperature (°C),Ambient temperature (°C),ASC tube jacket temperature (°C),LED temperature (°C),Box temperature (°C),Sample RH (%),Span deviation,Mass concentration (μg/m³),Mass concentration (μg/m³),Mass concentration (μg/m³)
DateTimeUTC,F1_M11,P_M11,Q1_M11,Q2_M11,T1_M11,T2_M11,T3_M11,T4_M11,T5_M11,U1_M11,ZSPAN_M11,X0_M11,X2_M11,X1_M11
2022-10-20 08:00:00,,0831.1,4.99,0.00,28.8,27.1,00.0,37.8,30.6,07.7,0000.0,0010.54,0003.71,0002.89
2022-10-20 08:01:00,,0831.1,5.02,0.00,28.8,27.1,00.0,37.8,30.6,07.7,0000.0,0009.90,0003.69,0002.87
2022-10-20 08:02:00,,0831.1,5.00,0.00,28.8,27.1,00.0,37.8,30.6,07.7,0000.0,0010.17,0003.70,0002.86
2022-10-20 08:03:00,,0831.1,5.00,0.00,28.8,27.1,00.0,37.8,30.5,07.7,0000.0,0010.42,0003.69,0002.86
2022-10-20 08:04:00,,0831.1,5.02,0.00,28.8,27.1,00.0,37.8,30.6,07.7,0000.0,0011.44,0003.69,0002.85
2022-10-20 08:05:00,,0831.1,4.99,0.00,28.8,27.1,00.0,37.8,30.5,07.7,0000.0,0011.86,0003.67,0002.84
2022-10-20 08:06:00,,0831.2,5.00,0.00,28.8,27.0,00.0,37.8,30.5,07.8,0000.0,0011.65,0003.69,0002.84
2022-10-20 08:07:00,,0831.1,5.02,0.00,28.8,27.0,00.0,37.7,30.5,07.7,0000.0,0012.46,0003.70,0002.84
2022-10-20 08:08:00,,0831.1,4.99,0.00,28.8,27.0,00.0,37.7,30.5,07.7,0000.0,0012.75,0003.73,0002.83
2022-10-20 08:09:00,,0831.1,5.01,0.00,28.8,27.0,00.0,37.7,30.5,07.7,0000.0,0012.62,0003.72,0002.82
2022-10-20 08:10:00,,0831.1,4.99,0.00,28.7,27.0,00.0,37.7,30.5,07.7,0000.0,0012.59,0003.67,0002.81
2022-10-20 08:11:00,,0831.0,4.99,0.00,28.7,27.0,00.0,37.7,30.4,07.7,0000.0,0013.86,0003.68,0002.81
2022-10-20 08:12:00,,0831.0,5.02,0.00,28.7,26.9,00.0,37.7,30.4,07.7,0000.0,0014.21,0003.67,0002.81
2022-10-20 08:13:00,,0831.0,4.99,0.00,28.7,26.9,00.0,37.7,30.4,07.7,0000.0,0014.38,0003.66,0002.82
2022-10-20 08:14:00,,0831.1,5.01,0.00,28.7,26.9,00.0,37.7,30.4,07.7,0000.0,0015.18,0003.67,0002.83
2022-10-20 08:15:00,,0831.1,4.98,0.00,28.7,26.9,00.0,37.7,30.4,07.8,0000.0,0014.02,0003.70,0002.84
2022-10-20 08:16:00,,0831.0,5.02,0.00,28.7,26.9,00.0,37.7,30.4,07.8,0000.0,0013.29,0003.72,0002.84
2022-10-20 08:17:00,,0831.0,4.98,0.00,28.7,26.9,00.0,37.6,30.4,07.8,0000.0,0012.99,0003.73,0002.84
2022-10-20 08:18:00,,0831.0,5.02,0.00,28.7,26.9,00.0,37.6,30.5,07.8,0000.0,0012.19,0003.75,0002.86
2022-10-20 08:19:00,,0831.0,4.98,0.00,28.7,26.9,00.0,37.6,30.5,07.8,0000.0,0012.28,0003.76,0002.89
2022-10-20 08:20:00,,0831.0,5.01,0.00,28.7,26.9,00.0,37.6,30.4,07.8,0000.0,0011.90,0003.78,0002.90
2022-10-20 08:21:00,,0831.0,5.00,0.00,28.6,26.9,00.0,37.6,30.4,07.8,0000.0,0011.31,0003.79,0002.90
2022-10-20 08:22:00,,0831.0,4.99,0.00,28.6,26.9,00.0,37.6,30.4,07.8,0000.0,0011.18,0003.78,0002.88
2022-10-20 08:23:00,,0831.0,5.01,0.00,28.6,26.9,00.0,37.6,30.4,07.8,0000.0,0011.29,0003.77,0002.90
2022-10-20 08:24:00,,0830.9,4.98,0.00,28.6,26.9,00.0,37.6,30.4,07.8,0000.0,0011.30,0003.77,0002.91
2022-10-20 08:25:00,,0830.9,5.01,0.00,28.6,26.9,00.0,37.6,30.4,07.8,0000.0,0010.78,0003.80,0002.92
2022-10-20 08:26:00,,0830.9,4.99,0.00,28.6,26.9,00.0,37.6,30.4,07.8,0000.0,0010.83,0003.81,0002.92
2022-10-20 08:27:00,,0830.9,5.00,0.00,28.6,26.9,00.0,37.6,30.4,07.8,0000.0,0011.07,0003.78,0002.93
2022-10-20 08:28:00,,0830.9,4.98,0.00,28.6,26.9,00.0,37.5,30.4,07.8,0000.0,0011.50,0003.74,0002.93
2022-10-20 08:29:00,,0830.9,5.01,0.00,28.6,26.8,00.0,37.5,30.3,07.8,0000.0,0011.36,0003.70,0002.90
2022-10-20 08:30:00,,0830.9,5.01,0.00,28.6,26.8,00.0,37.5,30.4,07.9,0000.0,0011.67,0003.67,0002.88
2022-10-20 08:31:00,,0830.9,4.99,0.00,28.6,26.9,00.0,37.5,30.4,07.9,0000.0,0012.59,0003.68,0002.88
2022-10-20 08:32:00,,0830.9,5.01,0.00,28.6,26.8,00.0,37.5,30.3,07.8,0000.0,0012.88,0003.67,0002.86
2022-10-20 08:33:00,,0830.9,5.01,0.00,28.6,26.8,00.0,37.5,30.3,07.8,0000.0,0012.33,0003.69,0002.87
2022-10-20 08:34:00,,0830.9,4.98,0.00,28.5,26.8,00.0,37.5,30.3,07.8,0000.0,0011.47,0003.70,0002.87
2022-10-20 08:35:00,,0830.9,5.01,0.00,28.5,26.8,00.0,37.5,30.3,07.8,0000.0,0011.72,0003.68,0002.85
2022-10-20 08:36:00,,0830.9,4.98,0.00,28.5,26.8,00.0,37.5,30.2,07.8,0000.0,0012.64,0003.65,0002.88
2022-10-20 08:37:00,,0830.8,5.01,0.00,28.5,26.7,00.0,37.5,30.2,07.8,0000.0,0012.79,0003.65,0002.88
2022-10-20 08:38:00,,0830.7,5.01,0.00,28.5,26.7,00.0,37.5,30.2,07.8,0000.0,0012.57,0003.69,0002.89
2022-10-20 08:39:00,,0830.7,4.99,0.00,28.5,26.7,00.0,37.5,30.3,07.8,0000.0,0012.38,0003.72,0002.90
2022-10-20 08:40:00,,0830.8,5.01,0.00,28.5,26.7,00.0,37.4,30.2,07.8,0000.0,0012.76,0003.75,0002.92
2022-10-20 08:41:00,,0830.8,4.99,0.00,28.5,26.7,00.0,37.4,30.2,07.8,0000.0,0012.14,0003.76,0002.93
2022-10-20 08:42:00,,0830.8,4.99,0.00,28.5,26.7,00.0,37.4,30.3,07.8,0000.0,0011.11,0003.73,0002.92
2022-10-20 08:43:00,,0830.7,5.01,0.00,28.5,26.7,00.0,37.4,30.2,07.8,0000.0,0010.88,0003.73,0002.95
2022-10-20 08:44:00,,0830.7,5.00,0.00,28.5,26.7,00.0,37.4,30.2,07.8,0000.0,0011.64,0003.75,0002.95
2022-10-20 08:45:00,,0830.6,4.99,0.00,28.4,26.7,00.0,37.4,30.3,07.9,0000.0,0011.98,0003.73,0002.96
2022-10-20 08:46:00,,0830.6,5.02,0.00,28.4,26.7,00.0,37.4,30.2,07.9,0000.0,0011.34,0003.77,0002.99
2022-10-20 08:47:00,,0830.6,5.01,0.00,28.4,26.6,00.0,37.4,30.1,07.9,0000.0,0009.92,0003.76,0002.97
2022-10-20 08:48:00,,0830.6,5.00,0.00,28.4,26.6,00.0,37.4,30.1,07.9,0000.0,0009.51,0003.74,0002.96
2022-10-20 08:49:00,,0830.6,4.99,0.00,28.4,26.6,00.0,37.4,30.1,07.9,0000.0,0009.34,0003.71,0002.95
2022-10-20 08:50:00,,0830.6,5.00,0.00,28.4,26.6,00.0,37.4,30.1,07.9,0000.0,0009.02,0003.70,0002.94
2022-10-20 08:51:00,,0830.6,5.00,0.00,28.4,26.6,00.0,37.3,30.1,07.9,0000.0,0008.67,0003.74,0002.94
2022-10-20 08:52:00,,0830.6,5.00,0.00,28.4,26.6,00.0,37.3,30.1,07.9,0000.0,0008.67,0003.75,0002.96
2022-10-20 08:53:00,,0830.6,5.00,0.00,28.4,26.6,00.0,37.3,30.1,07.9,0000.0,0008.74,0003.76,0002.96
2022-10-20 08:54:00,,0830.6,5.00,0.00,28.4,26.6,00.0,37.3,30.1,07.9,0000.0,0008.64,0003.79,0002.96
2022-10-20 08:55:00,,0830.6,5.00,0.00,28.4,26.6,00.0,37.3,30.1,07.9,0000.0,0008.18,0003.77,0002.97
2022-10-20 08:56:00,,0830.6,5.00,0.00,28.3,26.6,00.0,37.3,30.1,07.9,0000.0,0008.13,0003.78,0002.97
2022-10-20 08:57:00,,0830.6,4.99,0.00,28.3,26.6,00.0,37.3,30.2,07.9,0000.0,0008.67,0003.77,0002.96
2022-10-20 08:58:00,,0830.6,4.99,0.00,28.3,26.6,00.0,37.3,30.1,07.9,0000.0,0009.21,0003.79,0002.97
2022-10-20 08:59:00,,0830.5,5.00,0.00,28.3,26.5,00.0,37.3,30.1,07.9,0000.0,0009.47,0003.79,0002.98
